COSMOS 2251 DEB, 35759

Orbit data source: Space-Track

COSMOS 2251 DEB, 35759 is space debris in LEO originally from a launch on Wed, 16 Jun 1993 UTC launched from the Plesetsk Missile And Space Complex (PKMTR). The debris from Iridium 33, an American commercial communications satellite, has been tracked extensively since its accidental collision with the defunct Russian satellite Cosmos 2251 in 2009. This event, occurring at high speed in low Earth orbit (LEO), generated thousands of pieces of space debris, significantly increasing the risk of further collisions. The Iridium 33 debris cloud has impacted space traffic management and orbital debris mitigation strategies, making it a subject of ongoing study in space situational awareness.

Loading next visibility...
Identifier
35759, 1993-036ARD
Orbit
LEO
Country
Flag of CISCIS
Related business
Manufacturer
Unknown
Mission
Spacecraft
Bus & Motor
Unknown
Mass
Unknown
Launch date (UTC)
1993-06-16 (33 years ago)
Launch vehicle
Unknown
Launch site
Plesetsk Missile And Space Complex (PKMTR)
Object type
Payload
Rocket body
Debris
Shape & HBR
Unknown shape, 0.1 m
Radar Cross Section
Small (<0.1 m²)

Expand to show TLE details & history
Last TLE update: 3 days ago

TLE from 3 days ago
0 COSMOS 2251 DEB
1 35759U 93036ARD 26160.46552321  .00000814  00000-0  15001-3 0  9996
2 35759  74.0365 232.1497 0077254 305.2679  54.1278 14.65469877687534
Epoch: 2026-06-09T11:10Z
TLE epoch observation values (Epoch: 2026-06-09T11:10:21.205Z)
Latitude
0.00003°
Longitude
166.72372°
Altitude
646.556 km
Speed
7.552 km/s
True Right ascension
15h 28m 35s
True Declination
0° 00' 00"
Sunlit
Object was in full shadow at epoch
Visualization orbit readout
Latitude
Unknown
Longitude
Unknown
Altitude
Unknown
Speed
Unknown
Apparent Right ascension
Unknown
Apparent Declination
Unknown
Sunlit
N/A
Visualization observer readout
Local Sidereal Time
01:21:18
Azimuth
Unknown
Elevation
Unknown
Doppler factor
Unknown
Orbital elements
Apogee altitude
727.633 km
Perigee altitude
618.684 km
Semi-major axis
7,051.295 km
Eccentricity
0.00773
Inclination
74.0365°
RAAN
232.1497°
Arg. of periapsis
305.2679°
True anomaly
54.84922°
Mean anomaly
54.1278°
Eccentric anomaly
54.4881°
Mean motion
3.66556 °/min
Orbital period
98.21 mins
BSTAR
0.00015001

Documentation

Showing up to 5 results
|